Regional Weather Roundup
Issued by NWS

Home | Current Version | Previous Version | Graphics & Text | Print | Product List | Glossary On
Versions: 1 2 3 4 5 6 7 8 9 10 11 12 13 14 15 16 17 18 19 20 21 22 23 24 25 26 27 28 29 30 31 32 33 34 35 36 37 38 39 40 41 42 43 44 45 46 47 48 49 50
683
ASUS43 KBIS 270010
RWRND

NORTH DAKOTA REGIONAL WEATHER ROUNDUP
NATIONAL WEATHER SERVICE BISMARCK ND
700 PM CDT THU MAY 26 2016

NOTE: "FAIR" INDICATES FEW OR NO CLOUDS BELOW 12,000 FEET WITH NO
SIGNIFICANT WEATHER AND/OR OBSTRUCTIONS TO VISIBILITY.


NDZ001>003-009>011-017-270100-
NORTHWEST NORTH DAKOTA

CITY           SKY/WX    TMP DP  RH WIND       PRES   REMARKS
WILLISTON      CLOUDY    66  49  54 N9        29.79R
6HR MIN TEMP:  60; 6HR MAX TEMP:  68; 6HR PCP: TRACE;

MINOT          CLOUDY    59  50  72 E8        29.79R
MINOT AFB      MOSUNNY   63  53  70 NE13      29.77R
$$

NDZ018>021-031>035-040>046-270100-
SOUTHWEST NORTH DAKOTA

CITY           SKY/WX    TMP DP  RH WIND       PRES   REMARKS
BISMARCK       MOSUNNY   69  49  48 NW9G18    29.75S
6HR MIN TEMP:  68; 6HR MAX TEMP:  76;

DICKINSON      PTSUNNY   57  41  55 W18       29.79F
GARRISON         N/A     66  49  54 NW13      29.77R
6HR MIN TEMP:  53; 6HR MAX TEMP:  69; 6HR PCP:  0.38;

HETTINGER ARPT PTSUNNY   66  41  40 NW14G21   29.83R
$$

NDZ004>008-012>016-024-026-027-054-270100-
NORTHEAST NORTH DAKOTA

CITY           SKY/WX    TMP DP  RH WIND       PRES   REMARKS
GRAND FORKS    MOSUNNY   70  55  59 NW15      29.71F
GRND FRKS AFB  SUNNY     69  54  58 NW13      29.73S
DEVILS LAKE    SUNNY     65  52  62 N12       29.76F
$$

NDZ022-023-025-028>030-036>039-047>053-270100-
SOUTHEAST NORTH DAKOTA

CITY           SKY/WX    TMP DP  RH WIND       PRES   REMARKS
FARGO          SUNNY     76  52  43 NW9       29.71F
6HR MIN TEMP:  67; 6HR MAX TEMP:  77;

JAMESTOWN      SUNNY     72  48  42 W12       29.71F
$$





USA.gov is the U.S. government's official web portal to all federal, state and local government web resources and services.